TimeMST,TemperatureF,Dew PointF,Humidity,Sea Level PressureIn,VisibilityMPH,Wind Direction,Wind SpeedMPH,Gust SpeedMPH,PrecipitationIn,Events,Conditions,WindDirDegrees,DateUTC
12:15 AM,24.8,21.2,86,29.71,10.0,North,8.1,-,N/A,,Overcast,360,2012-12-19 07:15:00
12:55 AM,24.8,21.2,86,29.70,10.0,North,8.1,-,N/A,,Overcast,360,2012-12-19 07:55:00
1:15 AM,24.8,19.4,80,29.70,10.0,North,8.1,-,N/A,,Overcast,10,2012-12-19 08:15:00
1:35 AM,24.8,19.4,80,29.71,10.0,North,8.1,-,N/A,,Overcast,360,2012-12-19 08:35:00
1:55 AM,24.8,19.4,80,29.71,10.0,North,8.1,-,N/A,,Overcast,350,2012-12-19 08:55:00
2:15 AM,24.8,19.4,80,29.71,10.0,North,9.2,-,N/A,,Overcast,350,2012-12-19 09:15:00
2:35 AM,24.8,17.6,74,29.71,10.0,North,10.4,-,N/A,,Overcast,350,2012-12-19 09:35:00
2:55 AM,24.8,17.6,74,29.70,10.0,North,11.5,-,N/A,,Overcast,350,2012-12-19 09:55:00
3:15 AM,24.8,17.6,74,29.70,10.0,North,11.5,-,N/A,,Overcast,350,2012-12-19 10:15:00
3:35 AM,24.8,17.6,74,29.70,10.0,North,11.5,-,N/A,,Overcast,360,2012-12-19 10:35:00
3:55 AM,24.8,17.6,74,29.71,10.0,North,12.7,-,N/A,,Overcast,350,2012-12-19 10:55:00
4:15 AM,24.8,17.6,74,29.70,10.0,North,12.7,-,N/A,,Overcast,360,2012-12-19 11:15:00
4:35 AM,24.8,17.6,74,29.72,10.0,North,13.8,-,N/A,,Overcast,350,2012-12-19 11:35:00
5:15 AM,23.0,17.6,80,29.73,3.0,North,20.7,-,N/A,,Overcast,360,2012-12-19 12:15:00
5:35 AM,21.2,17.6,86,29.77,3.0,North,18.4,-,N/A,,Overcast,350,2012-12-19 12:35:00
5:55 AM,21.2,17.6,86,29.75,1.2,North,20.7,-,N/A,,Overcast,350,2012-12-19 12:55:00
6:15 AM,21.2,17.6,86,29.80,1.5,NNW,13.8,-,N/A,,Overcast,340,2012-12-19 13:15:00
6:35 AM,21.2,19.4,93,29.77,1.5,North,16.1,-,N/A,,Overcast,10,2012-12-19 13:35:00
7:15 AM,21.2,17.6,86,29.77,7.0,NNW,13.8,-,N/A,,Overcast,340,2012-12-19 14:15:00
7:35 AM,21.2,17.6,86,29.80,3.0,NNW,12.7,-,N/A,,Overcast,330,2012-12-19 14:35:00
7:55 AM,21.2,17.6,86,29.81,2.0,NNW,15.0,-,N/A,,Overcast,340,2012-12-19 14:55:00
8:55 AM,21.2,17.6,86,29.83,1.0,North,20.7,-,N/A,,Overcast,350,2012-12-19 15:55:00
9:35 AM,19.4,15.8,86,29.84,1.2,North,28.8,32.2,N/A,,Overcast,350,2012-12-19 16:35:00
9:55 AM,21.2,15.8,80,29.84,1.0,North,28.8,36.8,N/A,,Overcast,360,2012-12-19 16:55:00
10:15 AM,19.4,12.2,74,29.88,1.8,NNW,18.4,-,N/A,,Overcast,340,2012-12-19 17:15:00
10:35 AM,19.4,14.0,80,29.88,3.0,NNW,21.9,-,N/A,,Overcast,330,2012-12-19 17:35:00
10:55 AM,19.4,14.0,80,29.88,5.0,NNW,18.4,32.2,N/A,,Overcast,340,2012-12-19 17:55:00
11:15 AM,21.2,12.2,68,29.88,5.0,North,26.5,33.4,N/A,,Overcast,350,2012-12-19 18:15:00
11:35 AM,21.2,12.2,68,29.88,3.0,North,25.3,33.4,N/A,,Overcast,350,2012-12-19 18:35:00
11:55 AM,21.2,12.2,68,29.88,7.0,NNW,21.9,25.3,N/A,,Overcast,340,2012-12-19 18:55:00
12:15 PM,21.2,10.4,63,29.88,10.0,North,17.3,-,N/A,,Mostly Cloudy,350,2012-12-19 19:15:00
12:35 PM,23.0,12.2,63,29.88,10.0,North,18.4,-,N/A,,Overcast,360,2012-12-19 19:35:00
12:55 PM,23.0,10.4,59,29.89,10.0,North,16.1,-,N/A,,Overcast,10,2012-12-19 19:55:00
1:15 PM,23.0,10.4,59,29.90,10.0,North,17.3,-,N/A,,Overcast,10,2012-12-19 20:15:00
1:35 PM,23.0,10.4,59,29.90,10.0,North,16.1,-,N/A,,Mostly Cloudy,10,2012-12-19 20:35:00
1:55 PM,24.8,8.6,50,29.90,10.0,North,17.3,21.9,N/A,,Mostly Cloudy,360,2012-12-19 20:55:00
2:35 PM,24.8,10.4,54,29.92,10.0,North,20.7,-,N/A,,Clear,360,2012-12-19 21:35:00
2:55 PM,24.8,8.6,50,29.93,10.0,North,20.7,-,N/A,,Clear,360,2012-12-19 21:55:00
3:15 PM,23.0,8.6,54,29.94,10.0,North,16.1,-,N/A,,Clear,360,2012-12-19 22:15:00
3:35 PM,23.0,6.8,50,29.96,10.0,North,17.3,-,N/A,,Clear,350,2012-12-19 22:35:00
3:55 PM,21.2,5.0,50,29.96,10.0,North,15.0,-,N/A,,Clear,360,2012-12-19 22:55:00
4:35 PM,19.4,1.4,46,29.99,10.0,NNW,12.7,-,N/A,,Clear,340,2012-12-19 23:35:00
4:55 PM,19.4,1.4,46,30.01,10.0,North,11.5,-,N/A,,Clear,360,2012-12-19 23:55:00
5:15 PM,17.6,-0.4,45,30.02,10.0,NNW,13.8,-,N/A,,Clear,340,2012-12-20 00:15:00
5:35 PM,19.4,1.4,46,30.03,10.0,NW,16.1,-,N/A,,Clear,320,2012-12-20 00:35:00
6:15 PM,15.8,-0.4,49,30.06,10.0,NW,10.4,-,N/A,,Clear,320,2012-12-20 01:15:00
7:35 PM,17.6,1.4,49,30.08,10.0,NNW,8.1,-,N/A,,Clear,340,2012-12-20 02:35:00
7:55 PM,17.6,-2.2,42,30.09,10.0,North,6.9,-,N/A,,Clear,350,2012-12-20 02:55:00
8:15 PM,15.8,-2.2,45,30.09,10.0,North,8.1,-,N/A,,Clear,360,2012-12-20 03:15:00
8:35 PM,17.6,-0.4,45,30.08,10.0,North,9.2,-,N/A,,Clear,10,2012-12-20 03:35:00
8:55 PM,14.0,-0.4,53,30.08,10.0,NE,5.8,-,N/A,,Clear,50,2012-12-20 03:55:00
9:15 PM,14.0,-0.4,53,30.08,10.0,NNE,9.2,-,N/A,,Clear,20,2012-12-20 04:15:00
9:35 PM,14.0,-2.2,49,30.08,10.0,North,6.9,-,N/A,,Clear,360,2012-12-20 04:35:00
9:55 PM,12.2,-5.8,45,30.08,10.0,North,9.2,-,N/A,,Clear,10,2012-12-20 04:55:00
10:35 PM,10.4,-5.8,48,30.09,10.0,West,3.5,-,N/A,,Clear,280,2012-12-20 05:35:00
10:55 PM,6.8,-7.6,52,30.10,10.0,South,9.2,-,N/A,,Clear,180,2012-12-20 05:55:00
11:15 PM,10.4,3.2,73,30.10,10.0,South,5.8,-,N/A,,Clear,190,2012-12-20 06:15:00
11:35 PM,10.4,-0.4,62,30.10,10.0,SW,3.5,-,N/A,,Clear,230,2012-12-20 06:35:00